Theta_e
360 357 357 360 359 358 357 358 363 364 364 363 362 362 362 357 356 355 352 351 351 351
363 363 362 364 363 358 360 358 360 361 360 359 360 361 362 355 355 354 352 350 353 347
357 357 356 356 355 356 357 358 356 354 352 351 353 355 358 356 357 355 353 352 351 348
351 351 350 349 350 351 352 351 350 348 346 346 346 348 353 353 355 353 355 355 351 348
344 344 344 345 345 348 347 347 347 346 345 345 346 347 347 347 349 350 349 351 352 348
341 341 341 341 341 341 342 342 344 345 344 343 344 344 345 346 347 349 349 350 351 352
339 340 338 338 340 340 342 341 343 343 343 344 344 343 343 343 344 346 347 351 351 351
340 339 337 337 338 339 340 341 343 342 342 342 340 337 339 340 341 345 344 348 347 349
338 337 336 336 337 338 339 340 342 340 338 336 334 328 328 334 336 339 340 341 345 347
336 335 334 335 336 336 338 340 338 337 335 333 335 326 324 327 335 336 337 339 340 338
335 333 333 335 335 336 337 336 334 332 332 333 333 324 321 323 331 333 335 336 337 338
333 331 333 332 333 335 333 331 329 330 331 332 334 322 319 324 334 331 332 335 335 336
333 333 332 333 332 331 330 328 328 329 331 329 333 323 315 320 332 330 326 329 333 328
334 333 333 331 331 330 329 328 327 328 331 334 333 334 315 313 326 325 322 322 326 333
Wind_Speed
9 7 7 9 8 8 8 9 9 8 9 10 11 11 11 10 10 10 10 13 12 9
7 9 8 10 8 8 9 9 10 10 11 12 12 11 12 9 11 11 10 12 14 13
6 5 6 7 10 10 10 9 10 10 10 11 12 12 12 11 12 13 11 10 14 15
4 5 7 8 9 10 10 11 11 12 12 12 12 13 13 14 15 15 15 15 14 15
5 7 9 10 11 12 13 13 14 12 12 12 13 13 14 16 15 16 14 17 16 16
8 8 9 11 12 13 14 15 15 13 13 14 13 13 13 15 16 17 17 18 18 18
9 9 10 13 14 14 14 15 14 14 14 14 14 14 14 14 15 17 17 17 17 18
7 9 12 13 14 15 15 15 15 14 14 13 13 12 13 14 16 15 18 17 17 18
8 10 12 14 15 15 15 15 14 12 13 14 11 11 12 15 16 17 17 17 16 17
9 12 13 14 15 15 15 13 13 13 13 14 14 13 13 14 15 16 16 17 14 13
11 13 14 14 15 15 11 11 12 13 13 13 13 13 12 14 14 12 15 16 16 16
12 13 13 14 13 11 11 11 12 12 14 14 16 11 12 11 12 10 14 14 15 16
11 11 13 13 12 11 11 12 11 13 13 15 15 14 9 9 9 12 9 13 14 19
11 11 12 11 11 11 11 11 10 13 13 14 13 13 9 11 8 8 8 9 11 10
Wind_Direction
241 252 259 262 272 276 276 277 281 268 257 259 255 253 247 243 242 234 232 234 225 215
236 243 263 280 281 280 282 279 275 276 275 272 263 253 252 246 248 240 234 229 228 229
253 278 287 289 288 287 286 280 277 275 274 275 273 270 262 251 242 241 233 226 228 239
316 325 311 290 288 288 290 284 278 279 281 278 276 275 268 263 256 237 237 235 229 234
322 305 292 292 296 296 291 288 282 280 277 277 278 276 274 271 264 249 240 245 242 238
285 286 300 306 306 301 294 289 280 279 282 285 285 282 277 274 269 261 253 244 247 250
279 301 314 311 304 301 294 286 279 281 281 282 284 282 279 275 274 270 265 257 246 246
298 318 315 308 302 297 292 283 281 281 280 282 283 279 283 280 279 273 271 264 256 250
313 312 303 298 296 295 293 286 280 280 284 287 284 287 263 264 278 277 274 273 268 259
299 301 302 304 301 297 294 290 287 288 286 284 286 274 267 269 284 280 271 268 263 258
301 302 302 302 297 295 291 293 294 292 289 286 284 268 270 274 284 271 268 265 258 252
297 297 297 294 293 297 298 296 292 290 291 291 289 272 260 287 293 292 286 268 257 255
291 289 292 295 298 297 294 291 291 291 289 288 282 277 268 287 289 293 299 288 271 253
292 294 292 292 293 296 293 293 287 285 294 288 281 284 266 268 293 280 294 290 279 270